Time,TemperatureF,DewpointF,PressureIn,WindDirection,WindDirectionDegrees,WindSpeedMPH,WindSpeedGustMPH,Humidity,HourlyPrecipIn,Conditions,Clouds,dailyrainin,SoftwareType,DateUTC
2013-06-04 00:00:00,46.0,15.0,-100.00,NNW,338,0.0,1.0,28,0.00,,,-99.99,,2013-06-04 06:00:00,
2013-06-04 00:32:00,46.0,15.0,-100.00,NNW,338,0.0,1.0,28,0.00,,,-99.99,,2013-06-04 06:32:00,
2013-06-04 00:42:00,46.0,15.0,-100.00,NNW,338,0.0,1.0,28,0.00,,,-99.99,,2013-06-04 06:42:00,
2013-06-04 00:52:00,46.0,15.0,-100.00,NNW,338,0.0,1.0,28,0.00,,,-99.99,,2013-06-04 06:52:00,
2013-06-04 01:00:00,45.0,17.0,-100.00,North,351,2.0,3.0,31,0.00,,,-99.99,,2013-06-04 07:00:00,
2013-06-04 01:32:00,45.0,17.0,-100.00,North,351,2.0,3.0,31,0.00,,,-99.99,,2013-06-04 07:32:00,
2013-06-04 01:42:00,45.0,17.0,-100.00,North,351,2.0,3.0,31,0.00,,,-99.99,,2013-06-04 07:42:00,
2013-06-04 01:52:00,45.0,17.0,-100.00,North,351,2.0,3.0,31,0.00,,,-99.99,,2013-06-04 07:52:00,
2013-06-04 02:00:00,45.0,18.0,-100.00,NNE,16,2.0,2.0,34,0.00,,,-99.99,,2013-06-04 08:00:00,
2013-06-04 02:32:00,45.0,18.0,-100.00,NNE,16,2.0,2.0,34,0.00,,,-99.99,,2013-06-04 08:32:00,
2013-06-04 02:42:00,45.0,18.0,-100.00,NNE,16,2.0,2.0,34,0.00,,,-99.99,,2013-06-04 08:42:00,
2013-06-04 02:52:00,45.0,18.0,-100.00,NNE,16,2.0,2.0,34,0.00,,,-99.99,,2013-06-04 08:52:00,
2013-06-04 03:00:00,44.0,18.0,-100.00,NNE,22,1.0,2.0,35,0.00,,,-99.99,,2013-06-04 09:00:00,
2013-06-04 03:32:00,44.0,18.0,-100.00,NNE,22,1.0,2.0,35,0.00,,,-99.99,,2013-06-04 09:32:00,
2013-06-04 03:43:00,44.0,18.0,-100.00,NNE,22,1.0,2.0,35,0.00,,,-99.99,,2013-06-04 09:43:00,
2013-06-04 03:53:00,44.0,18.0,-100.00,NNE,22,1.0,2.0,35,0.00,,,-99.99,,2013-06-04 09:53:00,
2013-06-04 04:00:00,43.0,20.0,-100.00,NNE,13,2.0,2.0,39,0.00,,,-99.99,,2013-06-04 10:00:00,
2013-06-04 04:32:00,43.0,20.0,-100.00,NNE,13,2.0,2.0,39,0.00,,,-99.99,,2013-06-04 10:32:00,
2013-06-04 04:42:00,43.0,20.0,-100.00,NNE,13,2.0,2.0,39,0.00,,,-99.99,,2013-06-04 10:42:00,
2013-06-04 04:52:00,43.0,20.0,-100.00,NNE,13,2.0,2.0,39,0.00,,,-99.99,,2013-06-04 10:52:00,
2013-06-04 05:00:00,42.0,21.0,-100.00,NE,35,0.0,1.0,41,0.00,,,-99.99,,2013-06-04 11:00:00,
2013-06-04 05:32:00,42.0,21.0,-100.00,NE,35,0.0,1.0,41,0.00,,,-99.99,,2013-06-04 11:32:00,
2013-06-04 05:42:00,42.0,21.0,-100.00,NE,35,0.0,1.0,41,0.00,,,-99.99,,2013-06-04 11:42:00,
2013-06-04 05:52:00,42.0,21.0,-100.00,NE,35,0.0,1.0,41,0.00,,,-99.99,,2013-06-04 11:52:00,
2013-06-04 06:00:00,42.0,21.0,-100.00,North,4,2.0,2.0,43,0.00,,,-99.99,,2013-06-04 12:00:00,
2013-06-04 06:32:00,42.0,21.0,-100.00,North,4,2.0,2.0,43,0.00,,,-99.99,,2013-06-04 12:32:00,
2013-06-04 06:42:00,42.0,21.0,-100.00,North,4,2.0,2.0,43,0.00,,,-99.99,,2013-06-04 12:42:00,
2013-06-04 06:52:00,42.0,21.0,-100.00,North,4,2.0,2.0,43,0.00,,,-99.99,,2013-06-04 12:52:00,
2013-06-04 07:00:00,42.0,23.0,-100.00,North,4,1.0,1.0,45,0.00,,,-99.99,,2013-06-04 13:00:00,
2013-06-04 07:32:00,42.0,23.0,-100.00,North,4,1.0,1.0,45,0.00,,,-99.99,,2013-06-04 13:32:00,
2013-06-04 07:42:00,42.0,23.0,-100.00,North,4,1.0,1.0,45,0.00,,,-99.99,,2013-06-04 13:42:00,
2013-06-04 07:52:00,42.0,23.0,-100.00,North,4,1.0,1.0,45,0.00,,,-99.99,,2013-06-04 13:52:00,
2013-06-04 08:00:00,47.0,24.0,-100.00,West,271,1.0,3.0,39,0.00,,,-99.99,,2013-06-04 14:00:00,
2013-06-04 08:32:00,47.0,24.0,-100.00,West,271,1.0,3.0,39,0.00,,,-99.99,,2013-06-04 14:32:00,
2013-06-04 08:42:00,47.0,24.0,-100.00,West,271,1.0,3.0,39,0.00,,,-99.99,,2013-06-04 14:42:00,
2013-06-04 08:52:00,47.0,24.0,-100.00,West,271,1.0,3.0,39,0.00,,,-99.99,,2013-06-04 14:52:00,
2013-06-04 09:00:00,52.0,23.0,-100.00,West,265,4.0,6.0,32,0.00,,,-99.99,,2013-06-04 15:00:00,
2013-06-04 09:33:00,52.0,23.0,-100.00,West,265,4.0,6.0,32,0.00,,,-99.99,,2013-06-04 15:33:00,
2013-06-04 09:42:00,52.0,23.0,-100.00,West,265,4.0,6.0,32,0.00,,,-99.99,,2013-06-04 15:42:00,
2013-06-04 09:53:00,52.0,23.0,-100.00,West,265,4.0,6.0,32,0.00,,,-99.99,,2013-06-04 15:53:00,
2013-06-04 10:00:00,52.0,23.0,-100.00,SW,234,5.0,8.0,31,0.00,,,-99.99,,2013-06-04 16:00:00,
2013-06-04 10:33:00,52.0,23.0,-100.00,SW,234,5.0,8.0,31,0.00,,,-99.99,,2013-06-04 16:33:00,
2013-06-04 10:42:00,52.0,23.0,-100.00,SW,234,5.0,8.0,31,0.00,,,-99.99,,2013-06-04 16:42:00,
2013-06-04 10:52:00,52.0,23.0,-100.00,SW,234,5.0,8.0,31,0.00,,,-99.99,,2013-06-04 16:52:00,
2013-06-04 11:00:00,55.0,23.0,-100.00,SW,230,5.0,8.0,28,0.00,,,-99.99,,2013-06-04 17:00:00,
2013-06-04 11:32:00,55.0,23.0,-100.00,SW,230,5.0,8.0,28,0.00,,,-99.99,,2013-06-04 17:32:00,
2013-06-04 11:42:00,55.0,23.0,-100.00,SW,230,5.0,8.0,28,0.00,,,-99.99,,2013-06-04 17:42:00,
2013-06-04 11:52:00,55.0,23.0,-100.00,SW,230,5.0,8.0,28,0.00,,,-99.99,,2013-06-04 17:52:00,
2013-06-04 12:00:00,55.0,22.0,-100.00,SW,227,6.0,10.0,27,0.00,,,-99.99,,2013-06-04 18:00:00,
2013-06-04 12:32:00,55.0,22.0,-100.00,SW,227,6.0,10.0,27,0.00,,,-99.99,,2013-06-04 18:32:00,
2013-06-04 12:42:00,55.0,22.0,-100.00,SW,227,6.0,10.0,27,0.00,,,-99.99,,2013-06-04 18:42:00,
2013-06-04 12:52:00,55.0,22.0,-100.00,SW,227,6.0,10.0,27,0.00,,,-99.99,,2013-06-04 18:52:00,
2013-06-04 13:00:00,56.0,24.0,-100.00,WSW,239,9.0,12.0,28,0.00,,,-99.99,,2013-06-04 19:00:00,
2013-06-04 13:32:00,56.0,24.0,-100.00,WSW,239,9.0,12.0,28,0.00,,,-99.99,,2013-06-04 19:32:00,
2013-06-04 13:42:00,56.0,24.0,-100.00,WSW,239,9.0,12.0,28,0.00,,,-99.99,,2013-06-04 19:42:00,
2013-06-04 13:52:00,56.0,24.0,-100.00,WSW,239,9.0,12.0,28,0.00,,,-99.99,,2013-06-04 19:52:00,
2013-06-04 14:00:00,57.0,25.0,-100.00,WSW,251,9.0,11.0,29,0.00,,,-99.99,,2013-06-04 20:00:00,
2013-06-04 14:32:00,57.0,25.0,-100.00,WSW,251,9.0,11.0,29,0.00,,,-99.99,,2013-06-04 20:32:00,
2013-06-04 14:42:00,57.0,25.0,-100.00,WSW,251,9.0,11.0,29,0.00,,,-99.99,,2013-06-04 20:42:00,
2013-06-04 14:52:00,57.0,25.0,-100.00,WSW,251,9.0,11.0,29,0.00,,,-99.99,,2013-06-04 20:52:00,
2013-06-04 15:00:00,57.0,28.0,-100.00,SW,225,6.0,10.0,33,0.00,,,-99.99,,2013-06-04 21:00:00,
2013-06-04 15:33:00,57.0,28.0,-100.00,SW,225,6.0,10.0,33,0.00,,,-99.99,,2013-06-04 21:33:00,
2013-06-04 15:42:00,57.0,28.0,-100.00,SW,225,6.0,10.0,33,0.00,,,-99.99,,2013-06-04 21:42:00,
2013-06-04 15:52:00,57.0,28.0,-100.00,SW,225,6.0,10.0,33,0.00,,,-99.99,,2013-06-04 21:52:00,
2013-06-04 16:00:00,57.0,29.0,-100.00,SW,233,5.0,11.0,34,0.00,,,-99.99,,2013-06-04 22:00:00,
2013-06-04 16:32:00,57.0,29.0,-100.00,SW,233,5.0,11.0,34,0.00,,,-99.99,,2013-06-04 22:32:00,
2013-06-04 16:42:00,57.0,29.0,-100.00,SW,233,5.0,11.0,34,0.00,,,-99.99,,2013-06-04 22:42:00,
2013-06-04 16:52:00,57.0,29.0,-100.00,SW,233,5.0,11.0,34,0.00,,,-99.99,,2013-06-04 22:52:00,
2013-06-04 17:00:00,57.0,29.0,-100.00,WSW,238,6.0,13.0,33,0.00,,,-99.99,,2013-06-04 23:00:00,
2013-06-04 17:32:00,57.0,29.0,-100.00,WSW,238,6.0,13.0,33,0.00,,,-99.99,,2013-06-04 23:32:00,
2013-06-04 17:42:00,57.0,29.0,-100.00,WSW,238,6.0,13.0,33,0.00,,,-99.99,,2013-06-04 23:42:00,
2013-06-04 17:52:00,57.0,29.0,-100.00,WSW,238,6.0,13.0,33,0.00,,,-99.99,,2013-06-04 23:52:00,
2013-06-04 18:00:00,55.0,28.0,-100.00,WSW,247,7.0,10.0,35,0.00,,,-99.99,,2013-06-05 00:00:00,
2013-06-04 18:32:00,55.0,28.0,-100.00,WSW,247,7.0,10.0,35,0.00,,,-99.99,,2013-06-05 00:32:00,
2013-06-04 18:42:00,55.0,28.0,-100.00,WSW,247,7.0,10.0,35,0.00,,,-99.99,,2013-06-05 00:42:00,
2013-06-04 18:52:00,55.0,28.0,-100.00,WSW,247,7.0,10.0,35,0.00,,,-99.99,,2013-06-05 00:52:00,
2013-06-04 19:00:00,55.0,25.0,-100.00,NW,306,3.0,6.0,30,0.00,,,-99.99,,2013-06-05 01:00:00,
2013-06-04 19:32:00,55.0,25.0,-100.00,NW,306,3.0,6.0,30,0.00,,,-99.99,,2013-06-05 01:32:00,
2013-06-04 19:42:00,55.0,25.0,-100.00,NW,306,3.0,6.0,30,0.00,,,-99.99,,2013-06-05 01:42:00,
2013-06-04 19:52:00,55.0,25.0,-100.00,NW,306,3.0,6.0,30,0.00,,,-99.99,,2013-06-05 01:52:00,
2013-06-04 20:00:00,51.0,25.0,-100.00,SSW,210,1.0,2.0,36,0.00,,,-99.99,,2013-06-05 02:00:00,
2013-06-04 20:32:00,51.0,25.0,-100.00,SSW,210,1.0,2.0,36,0.00,,,-99.99,,2013-06-05 02:32:00,
2013-06-04 20:42:00,51.0,25.0,-100.00,SSW,210,1.0,2.0,36,0.00,,,-99.99,,2013-06-05 02:42:00,
2013-06-04 20:52:00,51.0,25.0,-100.00,SSW,210,1.0,2.0,36,0.00,,,-99.99,,2013-06-05 02:52:00,
2013-06-04 21:00:00,50.0,24.0,-100.00,NE,39,0.0,1.0,36,0.00,,,-99.99,,2013-06-05 03:00:00,
2013-06-04 21:33:00,50.0,24.0,-100.00,NE,39,0.0,1.0,36,0.00,,,-99.99,,2013-06-05 03:33:00,
2013-06-04 21:43:00,50.0,24.0,-100.00,NE,39,0.0,1.0,36,0.00,,,-99.99,,2013-06-05 03:43:00,
2013-06-04 21:53:00,50.0,24.0,-100.00,NE,39,0.0,1.0,36,0.00,,,-99.99,,2013-06-05 03:53:00,
2013-06-04 22:00:00,50.0,21.0,-100.00,NNE,13,1.0,2.0,31,0.00,,,-99.99,,2013-06-05 04:00:00,
2013-06-04 22:33:00,50.0,21.0,-100.00,NNE,13,1.0,2.0,31,0.00,,,-99.99,,2013-06-05 04:33:00,
2013-06-04 22:42:00,50.0,21.0,-100.00,NNE,13,1.0,2.0,31,0.00,,,-99.99,,2013-06-05 04:42:00,
2013-06-04 22:53:00,50.0,21.0,-100.00,NNE,13,1.0,2.0,31,0.00,,,-99.99,,2013-06-05 04:53:00,
2013-06-04 23:00:00,49.0,21.0,-100.00,North,0,2.0,4.0,33,0.00,,,-99.99,,2013-06-05 05:00:00,
2013-06-04 23:32:00,49.0,21.0,-100.00,North,0,2.0,4.0,33,0.00,,,-99.99,,2013-06-05 05:32:00,
2013-06-04 23:42:00,49.0,21.0,-100.00,North,0,2.0,4.0,33,0.00,,,-99.99,,2013-06-05 05:42:00,
2013-06-04 23:52:00,49.0,21.0,-100.00,North,0,2.0,4.0,33,0.00,,,-99.99,,2013-06-05 05:52:00,